FW0984 Weather Reports


time (UTC)temp
C
wind
direction
speed
KPH
gust
KPH
rain 1hr
cm
rain 24hr
cm
rain mn
cm
humidity
%
barometer
mb
20260903023052 24 151 0.0 0.0 0.00 0.00 0.00 90 1016.4
20260903021552 24 151 0.0 0.0 0.00 0.00 0.00 89 1016.5
20260903020051 25 151 0.0 0.0 0.00 0.00 0.00 89 1016.4
20260903014559 25 151 0.0 0.0 0.00 0.00 0.00 88 1016.4
20260903013050 25 151 0.0 0.0 0.00 0.00 0.00 86 1016.3
20260903011605 25 189 0.0 0.0 0.00 0.00 0.00 86 1016.1
20260903004548 26 279 0.0 0.0 0.00 0.00 0.00 83 1015.8
20260903003048 27 279 0.0 0.0 0.00 0.00 0.00 79 1015.7
20260902193016 32 138 0.0 0.0 0.00 0.00 0.00 52 1016.7
20260902191504 32 264 0.0 0.0 0.00 0.00 0.00 57 1016.9
20260902190005 32 327 0.0 0.0 0.00 0.00 0.00 61 1017.0
20260902184501 32 68 0.0 0.0 0.00 0.00 0.00 59 1017.2
20260902183001 33 315 0.0 0.0 0.00 0.00 0.00 59 1017.3
20260902181612 33 297 0.0 0.0 0.00 0.00 0.00 56 1017.3
20260902180103 32 70 0.0 0.0 0.00 0.00 0.00 57 1017.5
20260902174558 33 278 0.0 0.0 0.00 0.00 0.00 57 1017.6
20260902173108 33 321 0.0 0.0 0.00 0.00 0.00 57 1017.8
20260902171556 33 294 0.0 0.0 0.00 0.00 0.00 61 1017.8
20260902170052 32 278 0.0 0.0 0.00 0.00 0.00 60 1018.0
20260902164547 32 295 0.0 0.0 0.00 0.00 0.00 58 1018.1
20260902163053 32 263 0.0 0.0 0.00 0.00 0.00 63 1018.2
20260902161541 32 289 0.0 0.0 0.00 0.00 0.00 64 1018.2
20260902160038 31 302 0.0 0.0 0.00 0.00 0.00 67 1018.4
20260902154534 31 328 0.0 0.0 0.00 0.00 0.00 68 1018.5
20260902153044 31 271 0.0 0.0 0.00 0.00 0.00 72 1018.6
20260902151528 31 197 0.0 0.0 0.00 0.00 0.00 68 1018.7
20260902150024 30 213 0.0 0.0 0.00 0.00 0.00 74 1018.8
20260902144519 30 125 0.0 0.0 0.00 0.00 0.00 78 1018.8
20260902143015 28 213 0.0 0.0 0.00 0.00 0.00 81 1018.7
20260902141511 27 187 0.0 0.0 0.00 0.00 0.00 86 1018.8
20260902140007 23 187 0.0 0.0 0.00 0.00 0.00 97 1018.7
20260902134506 23 162 0.0 0.0 0.00 0.00 0.00 97 1018.7
20260902133002 22 162 0.0 0.0 0.00 0.00 0.00 97 1018.7
20260902131559 22 162 0.0 0.0 0.00 0.00 0.00 97 1018.7
20260902130058 22 162 0.0 0.0 0.00 0.00 0.00 96 1018.8
20260902124555 21 162 0.0 0.0 0.00 0.00 0.00 96 1018.6
20260902123058 21 162 0.0 0.0 0.00 0.00 0.00 96 1018.6
20260902121552 21 162 0.0 0.0 0.00 0.00 0.00 96 1018.5
20260902120048 20 162 0.0 0.0 0.00 0.00 0.00 95 1018.4
20260902114547 20 162 0.0 0.0 0.00 0.00 0.00 95 1018.4
20260902113044 20 162 0.0 0.0 0.00 0.00 0.00 95 1018.2
20260902111541 20 162 0.0 0.0 0.00 0.00 0.00 95 1018.0
20260902110045 20 162 0.0 0.0 0.00 0.00 0.00 94 1018.1
20260902104539 20 162 0.0 0.0 0.00 0.00 0.00 94 1017.9
20260902103038 20 162 0.0 0.0 0.00 0.00 0.00 94 1017.9
20260902101537 21 162 0.0 0.0 0.00 0.00 0.00 94 1018.0
20260902100034 21 162 0.0 0.0 0.00 0.00 0.00 94 1017.9
20260902094532 21 162 0.0 0.0 0.00 0.00 0.00 94 1017.9
20260902093036 21 162 0.0 0.0 0.00 0.00 0.00 94 1017.9
20260902091528 21 162 0.0 0.0 0.00 0.00 0.00 94 1017.9
20260902090026 21 162 0.0 0.0 0.00 0.00 0.00 94 1017.7
20260902084524 21 162 0.0 0.0 0.00 0.00 0.00 94 1017.5
20260902083023 21 162 0.0 0.0 0.00 0.00 0.00 94 1017.4
20260902081523 21 162 0.0 0.0 0.00 0.00 0.00 94 1017.2
20260902080021 21 162 0.0 0.0 0.00 0.00 0.00 94 1017.2
20260902074521 21 162 0.0 0.0 0.00 0.00 0.00 93 1017.2
20260902073019 21 162 0.0 0.0 0.00 0.00 0.00 93 1017.3
20260902071517 22 162 0.0 0.0 0.00 0.00 0.00 93 1017.2
20260902070020 22 162 0.0 0.0 0.00 0.00 0.00 93 1017.2
20260902064514 22 162 0.0 0.0 0.00 0.00 0.00 93 1017.2
20260902063014 22 162 0.0 0.0 0.00 0.00 0.00 92 1017.1
20260902061531 22 162 0.0 0.0 0.00 0.00 0.00 92 1017.2
20260902060012 22 162 0.0 0.0 0.00 0.00 0.00 92 1017.1
20260902054511 22 162 0.0 0.0 0.00 0.00 0.00 91 1017.2
20260902053006 22 162 0.0 0.0 0.00 0.00 0.00 91 1017.3
20260902051504 22 162 0.0 0.0 0.00 0.00 0.00 91 1017.2
20260902050005 23 162 0.0 0.0 0.00 0.00 0.00 91 1017.2
20260902044602 23 162 0.0 0.0 0.00 0.00 0.00 90 1017.2
20260902043103 23 162 0.0 0.0 0.00 0.00 0.00 89 1017.2
20260902041557 23 162 0.0 0.0 0.00 0.00 0.00 88 1017.2
20260902040054 23 162 0.0 0.0 0.00 0.00 0.00 88 1017.3
20260902034556 23 162 0.0 0.0 0.00 0.00 0.00 87 1017.1
20260902033056 24 162 0.0 0.0 0.00 0.00 0.00 87 1017.3
20260902031552 24 162 0.0 0.0 0.00 0.00 0.00 87 1017.1
20260902030052 24 162 0.0 0.0 0.00 0.00 0.00 86 1017.2